Location: Namasale
(1.5000°N, 32.6167°E)
Time: 23:24:15
(UTC+00:00)

Transit 2A - Pass Details

Date: 23 April 2021
Orbit: 602 x 957 km, 66.7° (Epoch: 11 May)

Event Time Altitude Azimuth Distance (km) Brightness Sun altitude
Rises 02:30:10 0° 196° (SSW) 3,427 - -18.6°
Exits shadow 02:31:41 - 196° (SSW) 2,844 8.7 -18.2°
Reaches altitude 10° 02:32:45 10° 195° (SSW) 2,436 8.3 -18.0°
Maximum altitude 02:38:20 74° 110° (ESE) 800 6.2 -16.6°
Drops below altitude 10° 02:43:19 10° 25° (NNE) 2,188 8.9 -15.4°
Sets 02:45:33 0° 23° (NNE) 3,053 9.7 -14.9°
